Simultaneous Nadir Overpasses (SNOs) Predictions

Prediction of SNOs between METOP-C and LANDSAT-8 Satellite Orbit:

Table of predicted SNOs for the next 14.0 days since TLE Epoch: 9/19/2020
Index Date (METOP-C) Time (METOP-C) Lat,Lon (METOP-C) SZA (METOP-C ) Date (LANDSAT-8) Time (LANDSAT-8) Lat,Lon (LANDSAT-8) SZA (LANDSAT-8 ) Distance(km) Time Diff (sec)
1 09/19/2020 06:05:03 -81.15, -50.77 97.87 09/19/2020 06:05:08 -81.16, -50.71 97.86 1.00 5
2 09/19/2020 06:55:41 81.18, 117.48 82.27 09/19/2020 06:54:33 81.18, 117.37 82.22 1.92 68
3 09/22/2020 00:49:00 80.88,-158.17 82.38 09/22/2020 00:50:14 80.72,-157.83 82.32 18.48 74
4 09/22/2020 01:39:23 -81.16, 15.91 96.72 09/22/2020 01:39:24 -81.16, 15.78 96.74 2.34 1
5 09/22/2020 02:30:02 81.18,-176.28 83.36 09/22/2020 02:28:49 81.19,-176.16 83.34 2.12 73
6 09/24/2020 20:23:03 81.14, -85.68 84.30 09/24/2020 20:24:13 81.14, -85.77 84.32 1.54 70
7 09/24/2020 21:13:43 -81.16, 82.20 95.62 09/24/2020 21:13:39 -81.16, 82.25 95.62 0.90 4
8 09/27/2020 15:57:24 81.13, -19.46 85.39 09/27/2020 15:58:29 81.14, -19.33 85.43 2.31 65
9 09/27/2020 16:48:03 -81.17, 148.85 94.48 09/27/2020 16:47:55 -81.16, 148.71 94.50 2.51 8
10 09/30/2020 11:31:44 81.14, 47.12 86.52 09/30/2020 11:32:45 81.14, 47.09 86.54 0.60 61
